Date,TemperatureHighF,TemperatureAvgF,TemperatureLowF,DewpointHighF,DewpointAvgF,DewpointLowF,HumidityHigh,HumidityAvg,HumidityLow,PressureMaxIn,PressureMinIn,WindSpeedMaxMPH,WindSpeedAvgMPH,GustSpeedMaxMPH,PrecipitationSumIn
2014-1-1,62.5,44.1,28.6,52.0,39.1,27.0,96,83,66,30.24,30.01,15,2,249,0.00
2014-1-2,48.5,37.3,23.4,46.0,26.6,21.0,97,67,40,30.46,30.12,16,6,207,0.00
2014-1-3,53.8,36.2,16.9,39.0,21.9,13.0,96,64,21,30.45,30.12,13,3,209,0.00
2014-1-4,66.5,52.9,42.6,48.0,44.2,39.0,89,74,48,30.12,29.80,12,4,128,0.00
2014-1-5,54.1,39.0,29.6,48.0,26.4,13.0,93,62,40,30.41,29.78,21,8,219,0.00
2014-1-6,30.9,23.9,17.1,13.0,9.1,4.0,76,54,36,30.73,30.41,13,4,204,0.00
2014-1-7,43.9,28.9,10.7,26.0,12.9,8.0,90,57,27,30.64,30.35,14,3,229,0.00
2014-1-8,50.2,42.7,34.7,48.0,41.1,30.0,96,94,74,30.34,30.09,9,2,219,0.02
2014-1-9,67.9,55.7,48.3,59.0,52.8,47.0,97,90,69,30.15,29.94,8,2,196,0.00
2014-1-10,66.1,59.1,43.7,59.0,55.6,43.0,96,88,75,29.93,29.74,14,3,229,0.00
2014-1-11,72.2,52.8,33.2,48.0,31.9,21.0,97,53,17,30.14,29.85,12,2,249,0.00
2014-1-12,63.1,49.4,28.9,56.0,42.7,27.0,94,79,62,30.11,29.89,11,2,229,0.00
2014-1-13,62.4,51.9,28.7,58.0,33.4,21.0,95,56,20,30.13,29.87,18,4,216,0.00
2014-1-14,72.6,47.9,25.2,34.0,23.3,18.0,87,48,13,30.36,30.03,13,3,198,0.00
2014-1-15,63.3,42.5,24.9,27.0,22.7,19.0,80,51,22,30.45,30.16,10,2,233,0.00
2014-1-16,67.8,45.5,25.5,33.0,27.2,21.0,84,54,24,30.21,30.06,8,2,237,0.00
2014-1-17,61.4,44.6,28.7,31.0,23.2,18.0,81,48,20,30.34,30.21,17,2,236,0.00
2014-1-18,66.3,43.2,24.3,43.0,32.1,20.0,90,68,42,30.25,30.11,10,2,249,0.00
2014-1-19,71.4,48.0,29.5,41.0,30.9,26.0,96,61,18,30.34,30.11,7,1,236,0.00
2014-1-20,79.7,57.8,34.0,51.0,30.1,23.0,90,44,13,30.19,29.87,10,3,188,0.00
2014-1-21,59.9,47.0,26.6,27.0,21.0,17.0,71,38,20,30.38,30.20,16,5,141,0.00
2014-1-22,65.7,43.5,22.0,33.0,21.6,18.0,86,50,17,30.21,29.99,10,2,74,0.00
2014-1-23,49.9,37.0,21.0,45.0,30.4,17.0,90,78,54,30.66,30.02,17,6,229,0.00
2014-1-24,41.5,25.9,20.1,22.0,17.2,12.0,89,71,47,30.72,30.39,12,2,229,0.00
2014-1-25,70.0,40.2,15.9,37.0,25.2,14.0,94,63,17,30.39,30.05,6,0,198,0.00
2014-1-26,77.1,52.1,30.6,45.0,35.3,27.0,90,59,25,30.04,29.68,11,2,224,0.00
2014-1-27,49.8,39.6,31.7,31.0,21.4,11.0,75,50,33,30.23,29.81,23,6,249,0.00
2014-1-28,33.0,27.6,23.4,16.0,10.0,5.0,73,49,35,30.48,30.21,12,6,128,0.00
2014-1-29,46.8,30.4,14.8,16.0,12.6,6.0,77,51,29,30.49,30.25,8,2,249,0.00
2014-1-30,59.1,43.8,27.8,46.0,36.2,16.0,90,76,56,30.24,29.90,13,4,209,0.00
2014-1-31,75.1,58.6,45.2,59.0,50.5,43.0,96,77,43,29.94,29.76,10,4,219,0.00
2014-2-1,73.7,64.0,58.2,61.0,58.1,54.0,95,82,60,29.80,29.70,9,3,236,0.00
2014-2-2,59.7,37.2,30.5,56.0,34.0,28.0,92,88,80,30.23,29.79,18,7,194,0.01
2014-2-3,40.4,35.0,30.3,36.0,32.1,28.0,95,89,83,30.24,29.94,9,3,230,0.00
2014-2-4,66.1,45.6,33.4,45.0,36.7,30.0,96,76,26,30.07,29.86,9,2,236,0.05
2014-2-5,43.1,34.6,25.0,39.0,25.5,16.0,87,70,53,30.44,30.08,14,7,219,0.00
2014-2-6,26.0,23.5,20.7,17.0,14.8,13.0,73,70,66,30.52,30.37,15,6,204,0.00
2014-2-7,35.3,28.5,22.3,33.0,25.4,16.0,95,88,69,30.38,30.24,5,1,242,0.00
2014-2-8,70.4,48.2,32.5,43.0,34.6,32.0,97,67,26,30.25,30.02,10,2,239,0.00
2014-2-9,77.7,52.1,30.2,53.0,40.4,29.0,97,70,27,30.11,29.89,9,2,249,0.00
2014-2-10,53.5,38.5,28.6,52.0,36.0,27.0,94,90,85,30.17,29.98,14,5,236,0.00
2014-2-11,29.4,28.1,26.6,27.0,26.0,25.0,93,92,88,30.29,30.15,12,6,198,0.00
2014-2-12,53.3,36.3,26.8,34.0,28.5,24.0,90,75,48,30.26,30.09,12,3,163,0.00
2014-2-13,68.0,45.7,23.9,37.0,30.7,22.0,95,62,30,30.11,29.92,11,2,242,0.00
2014-2-14,80.5,55.7,31.6,46.0,33.1,28.0,95,52,18,30.07,29.86,15,3,230,0.00
2014-2-15,74.2,52.7,31.1,44.0,34.1,24.0,84,53,27,30.13,29.98,17,2,244,0.00
2014-2-16,74.7,60.1,46.5,61.0,55.2,41.0,97,85,62,30.03,29.89,10,2,249,0.00
2014-2-17,74.3,61.8,44.3,63.0,47.4,31.0,97,67,23,30.09,29.90,20,3,230,0.00
2014-2-18,72.9,59.7,44.4,62.0,49.4,33.0,94,69,47,30.08,29.88,8,2,224,0.00
2014-2-19,74.4,62.9,49.5,63.0,58.6,48.0,97,87,61,29.91,29.68,13,3,204,0.00
2014-2-20,76.5,64.8,50.9,63.0,45.3,22.0,95,59,14,30.03,29.67,16,6,214,0.00
2014-2-21,66.5,49.9,29.3,30.0,25.7,22.0,83,44,18,30.18,29.98,12,2,242,0.00
2014-2-22,72.8,58.0,44.2,57.0,47.7,26.0,89,70,42,30.00,29.82,14,4,135,0.00
2014-2-23,85.3,68.9,59.5,61.0,53.8,42.0,92,63,29,29.99,29.84,10,2,229,0.00
2014-2-24,73.8,61.2,52.4,60.0,51.6,42.0,86,71,53,30.03,29.93,6,1,242,0.00
2014-2-25,74.9,61.3,48.2,64.0,58.2,47.0,96,90,68,29.98,29.84,10,2,98,0.00
2014-2-26,47.9,35.7,26.7,47.0,31.7,25.0,95,86,62,30.20,29.97,16,5,39,0.12
2014-2-27,57.5,40.3,22.7,39.0,30.4,21.0,96,71,44,30.21,29.91,8,2,236,0.01
2014-2-28,85.6,57.9,40.2,51.0,43.6,35.0,92,66,17,29.91,29.75,12,2,249,0.00
2014-3-1,84.3,63.8,41.1,65.0,54.7,40.0,97,75,43,29.95,29.82,13,4,230,0.00
2014-3-2,67.5,46.0,24.0,65.0,43.4,21.0,94,90,81,30.23,29.82,17,6,162,0.02
2014-3-3,41.0,29.4,18.7,29.0,19.4,14.0,87,69,45,30.41,30.23,17,7,214,0.12
2014-3-4,55.9,39.9,30.4,39.0,32.7,27.0,90,77,49,30.29,30.00,5,1,249,0.04
2014-3-5,63.6,48.6,40.1,45.0,40.6,36.0,90,75,50,30.16,29.93,9,1,245,0.00
2014-3-6,62.6,44.9,33.7,42.0,35.9,31.0,92,73,35,30.26,30.05,14,3,209,0.00
2014-3-7,65.1,51.8,32.2,49.0,42.1,30.0,94,72,50,30.07,29.84,11,3,64,0.00
2014-3-8,58.6,51.1,42.2,55.0,46.8,34.0,94,85,69,30.23,29.83,13,4,22,0.09
2014-3-9,57.9,46.7,36.7,46.0,38.2,30.0,91,73,58,30.33,30.18,13,4,112,0.00
2014-3-10,65.7,54.3,42.6,56.0,50.5,41.0,95,87,71,30.22,29.92,6,1,59,0.01
2014-3-11,83.7,64.1,50.9,57.0,52.7,45.0,96,71,26,29.91,29.57,12,3,18,0.00
2014-3-12,66.6,52.5,42.8,48.0,29.7,21.0,83,45,23,30.27,29.71,28,10,224,0.00
2014-3-13,66.2,49.6,28.5,32.0,25.6,23.0,80,45,21,30.34,30.09,12,2,121,0.00
2014-3-14,73.3,59.8,47.1,58.0,50.2,29.0,89,72,47,30.08,29.89,14,4,24,0.00
2014-3-15,74.3,63.1,53.9,62.0,58.1,50.0,96,85,52,29.93,29.65,6,2,84,0.02
2014-3-16,58.7,52.4,44.9,53.0,40.3,31.0,97,66,42,30.05,29.69,23,9,229,0.00
2014-3-17,71.2,52.2,35.7,31.0,26.0,21.0,69,41,15,30.04,29.73,16,3,249,0.00
2014-3-18,83.5,61.2,45.1,43.0,34.2,24.0,63,40,18,29.80,29.63,12,3,104,0.00
2014-3-19,66.6,56.6,44.2,48.0,30.7,22.0,72,39,23,30.17,29.84,17,5,249,0.00
2014-3-20,77.6,56.5,33.5,42.0,35.3,29.0,87,51,23,30.22,30.00,7,1,222,0.00
2014-3-21,79.5,66.6,54.5,58.0,53.4,42.0,87,64,45,30.01,29.77,14,5,30,0.00
2014-3-22,71.3,65.5,60.5,66.0,62.6,57.0,95,90,81,29.97,29.81,5,2,144,0.01
2014-3-23,61.0,51.0,42.6,57.0,42.9,37.0,89,74,59,30.23,29.97,18,7,25,0.00
2014-3-24,66.1,52.9,43.0,49.0,42.6,36.0,90,69,54,30.21,29.99,6,1,245,0.00
2014-3-25,67.1,52.7,38.5,49.0,39.7,36.0,97,66,34,30.29,30.13,11,2,242,0.00
2014-3-26,59.5,55.2,52.1,56.0,48.2,39.0,95,78,56,30.17,29.90,19,7,29,0.00
2014-3-27,81.4,66.8,55.8,66.0,59.7,53.0,97,80,49,29.90,29.69,14,5,27,0.00
2014-3-28,89.3,71.1,52.8,65.0,49.2,27.0,96,58,12,29.96,29.70,13,3,25,0.00
2014-3-29,77.0,62.2,46.4,45.0,37.6,26.0,71,44,19,30.21,29.96,13,4,161,0.00
2014-3-30,78.9,58.9,35.7,52.0,40.3,31.0,87,54,30,30.18,29.94,17,5,68,0.00
2014-3-31,82.9,67.4,57.5,61.0,56.8,53.0,89,71,42,29.97,29.78,17,5,196,0.00
2014-4-1,83.8,71.0,63.2,66.0,63.0,60.0,95,78,50,29.91,29.75,12,5,19,0.00
2014-4-2,80.7,71.7,67.3,68.0,66.0,62.0,94,83,59,29.79,29.62,16,5,238,0.00
2014-4-3,83.3,73.3,62.2,69.0,66.1,57.0,91,79,53,29.77,29.60,10,4,188,0.00
2014-4-4,68.3,60.5,50.3,58.0,33.0,26.0,86,38,21,30.07,29.78,19,6,204,0.00
2014-4-5,63.3,56.2,48.1,46.0,38.2,33.0,72,52,36,30.03,29.81,9,2,158,0.00
2014-4-6,59.3,54.3,49.5,52.0,49.4,45.0,95,84,66,29.85,29.71,11,3,21,0.06
2014-4-7,73.7,53.8,37.5,51.0,44.1,36.0,97,75,32,30.07,29.77,14,3,33,0.28
2014-4-8,74.2,58.0,45.4,44.0,36.9,28.0,88,52,21,30.20,30.06,18,4,25,0.00
2014-4-9,83.5,61.8,35.9,52.0,37.8,33.0,92,50,18,30.24,30.03,10,3,78,0.00
2014-4-10,86.7,69.7,51.1,59.0,51.6,47.0,92,58,26,30.08,29.83,14,5,229,0.00
2014-4-11,86.8,70.4,55.4,60.0,56.5,52.0,95,66,34,29.96,29.82,13,4,19,0.00
2014-4-12,83.3,71.0,62.9,65.0,61.3,58.0,87,73,46,29.90,29.73,14,6,21,0.00
2014-4-13,77.1,69.7,64.4,67.0,63.9,62.0,95,82,67,29.78,29.59,15,4,233,0.00
2014-4-14,70.7,55.7,40.3,68.0,45.5,28.0,96,71,44,30.21,29.62,20,8,37,1.22
2014-4-15,65.0,49.0,31.5,34.0,25.0,17.0,81,44,19,30.37,30.10,10,2,209,0.00
2014-4-16,69.1,53.2,32.5,48.0,37.2,29.0,90,58,33,30.12,29.88,13,4,121,0.00
2014-4-17,65.9,59.4,54.9,58.0,54.7,48.0,92,85,73,30.12,29.92,9,2,151,0.00
2014-4-18,78.4,65.0,55.8,59.0,54.9,51.0,95,73,39,30.16,30.02,8,1,204,0.00
2014-4-19,77.1,63.8,46.3,57.0,53.1,45.0,97,71,47,30.13,29.98,8,2,196,0.00
2014-4-20,68.7,64.6,61.7,63.0,60.4,55.0,95,86,71,30.07,29.96,9,2,242,0.04
2014-4-21,83.2,69.0,61.7,66.0,62.5,53.0,96,82,52,30.02,29.86,13,3,118,0.08
2014-4-22,83.1,70.3,55.6,63.0,57.2,53.0,95,66,39,30.00,29.84,8,2,224,0.00
2014-4-23,85.4,70.3,52.7,66.0,59.7,51.0,96,72,46,29.89,29.66,15,4,196,0.00
2014-4-24,90.7,72.6,55.5,67.0,52.2,31.0,92,59,12,29.88,29.69,12,4,82,0.00
2014-4-25,86.3,69.5,48.9,62.0,53.8,43.0,87,60,36,29.96,29.80,9,2,24,0.00
2014-4-26,81.0,72.3,63.2,69.0,64.7,61.0,93,78,60,29.83,29.55,13,5,19,0.00
2014-4-27,94.5,78.5,59.6,71.0,56.7,37.0,90,57,14,29.58,29.40,10,3,16,0.00
2014-4-28,90.8,72.0,53.9,48.0,35.8,27.0,70,34,11,29.69,29.52,17,2,20,0.00
2014-4-29,77.2,65.7,48.4,42.0,33.2,22.0,67,33,17,29.94,29.60,17,5,26,0.00
2014-4-30,71.1,60.3,47.9,37.0,32.9,28.0,61,37,24,30.13,29.95,13,4,21,0.00
2014-5-1,74.4,58.5,42.6,43.0,32.9,25.0,77,45,17,30.17,29.98,8,0,17,0.00
2014-5-2,79.1,60.1,41.8,44.0,35.2,30.0,78,46,18,30.08,29.93,8,1,16,0.00
2014-5-3,90.1,64.7,42.6,45.0,28.1,-99.9,80,36,13,30.06,29.94,7,-62,12,0.00
2014-5-4,89.2,63.0,52.1,52.0,17.4,-99.9,59,26,15,30.04,29.87,0,-156,3,0.00
2014-5-5,91.2,65.2,57.8,62.0,36.4,-99.9,86,48,32,29.94,29.72,8,-128,14,0.00
2014-5-6,87.7,63.7,60.4,65.0,36.7,-99.9,92,55,45,29.80,29.62,13,-153,19,0.00
2014-5-7,86.5,65.0,67.5,68.0,44.0,-99.9,90,64,49,29.77,29.67,15,-123,21,0.00
2014-5-8,88.5,68.5,70.4,70.0,50.0,-99.9,91,67,49,29.77,29.65,12,-102,22,0.01
2014-5-9,86.3,62.9,63.6,72.0,41.1,-99.9,92,64,47,29.90,29.70,6,-137,13,0.09
2014-5-10,90.4,67.6,51.7,66.0,46.9,-99.9,97,61,37,29.87,29.69,13,-80,15,0.00
2014-5-11,87.5,66.9,65.8,69.0,43.7,-99.9,91,60,51,29.74,29.59,18,-129,23,0.00
2014-5-12,84.7,62.9,59.2,74.0,42.4,-99.9,96,70,65,29.84,29.64,18,-151,27,1.91
2014-5-13,60.1,47.2,49.8,58.0,27.6,-99.9,96,70,63,30.24,29.84,17,-141,25,0.31
2014-5-14,70.0,51.6,44.7,48.0,24.5,-99.9,93,52,25,30.30,30.17,19,-112,31,0.05
2014-5-15,80.3,57.0,37.7,49.0,27.7,-99.9,96,47,19,30.29,30.09,11,-83,15,0.00
2014-5-16,84.7,63.3,47.7,47.0,25.6,-99.9,82,33,17,30.13,29.92,14,-101,22,0.00
2014-5-17,84.8,63.0,58.2,60.0,34.5,-99.9,82,49,38,29.95,29.83,8,-134,14,0.00
2014-5-18,82.1,62.3,60.2,62.0,37.7,-99.9,91,57,46,29.99,29.89,10,-134,17,0.00
2014-5-19,84.0,62.1,62.1,63.0,36.0,-99.9,88,55,44,29.98,29.87,12,-146,22,0.00
2014-5-20,84.4,63.9,63.2,65.0,40.5,-99.9,87,59,46,30.00,29.89,14,-126,20,0.00
2014-5-21,86.6,66.8,67.2,67.0,42.4,-99.9,87,57,45,29.98,29.87,13,-125,20,0.00
2014-5-22,84.8,65.9,68.5,70.0,46.2,-99.9,92,66,55,30.00,29.90,11,-116,15,0.02
2014-5-23,81.8,62.8,68.8,71.0,43.4,-99.9,91,69,61,29.99,29.87,12,-134,17,0.08
2014-5-24,80.2,62.4,66.7,73.0,45.8,-99.9,96,77,75,29.96,29.81,11,-134,15,0.11
2014-5-25,80.4,55.5,60.8,72.0,30.0,-99.9,97,69,72,30.03,29.82,10,-206,18,1.84
2014-5-26,75.1,64.4,57.8,68.0,61.8,56.0,97,91,74,30.04,29.85,14,2,27,1.50
2014-5-27,82.9,69.3,60.0,73.0,66.5,59.0,97,91,69,29.95,29.77,10,2,18,1.04
2014-5-28,80.7,72.4,63.0,69.0,64.4,61.0,98,78,54,29.88,29.81,13,4,21,0.01
2014-5-29,85.4,72.2,58.6,67.0,62.1,58.0,97,73,46,29.88,29.77,8,2,15,0.00
2014-5-30,90.4,75.6,59.6,71.0,63.2,59.0,97,70,38,29.84,29.73,7,1,15,0.00
2014-5-31,89.2,78.1,63.9,73.0,66.3,63.0,96,70,43,29.84,29.76,11,2,13,0.00
2014-6-1,89.4,77.1,63.2,72.0,67.3,62.0,96,74,49,29.87,29.77,7,2,188,0.00
2014-6-2,86.8,77.2,68.2,69.0,67.2,64.0,90,73,50,29.89,29.80,11,4,71,0.00
2014-6-3,87.2,76.8,70.0,70.0,68.6,68.0,93,77,54,29.94,29.83,9,2,12,0.00
2014-6-4,87.3,77.3,69.0,72.0,68.5,67.0,92,76,55,29.85,29.74,11,4,16,0.00
2014-6-5,87.5,77.9,71.3,72.0,69.5,68.0,90,76,58,29.79,29.72,13,5,20,0.00
2014-6-6,87.8,78.6,70.7,72.0,68.7,67.0,89,73,53,29.86,29.75,13,5,21,0.00
2014-6-7,88.7,79.6,71.0,70.0,68.5,67.0,88,70,52,29.88,29.73,14,6,22,0.00
2014-6-8,85.0,77.4,72.7,74.0,70.2,68.0,90,79,63,29.90,29.70,12,4,20,0.04
2014-6-9,85.9,75.8,65.7,73.0,69.7,64.0,96,82,65,29.80,29.69,12,3,22,0.58
2014-6-10,87.5,72.3,57.1,64.0,58.6,54.0,97,66,33,29.89,29.77,11,3,22,0.00
2014-6-11,93.0,77.5,57.6,72.0,64.3,56.0,97,68,36,29.85,29.68,10,3,18,0.00
2014-6-12,93.5,81.4,66.2,75.0,71.2,64.0,93,73,47,29.87,29.67,11,3,30,0.29
2014-6-13,90.5,76.8,61.4,73.0,68.5,61.0,97,77,53,29.93,29.80,6,1,10,0.01
2014-6-14,86.1,76.6,67.0,73.0,69.2,64.0,94,79,60,29.94,29.74,9,3,16,0.07
2014-6-15,89.0,80.2,72.6,72.0,69.1,66.0,87,70,48,29.86,29.76,15,6,20,0.00
2014-6-16,90.2,80.3,71.2,72.0,69.5,67.0,91,71,48,29.93,29.82,13,5,19,0.00
2014-6-17,88.7,80.2,74.1,72.0,69.6,65.0,87,71,51,29.92,29.81,15,6,20,0.00
2014-6-18,88.7,79.5,73.4,72.0,70.1,67.0,91,74,52,29.92,29.79,13,6,22,0.01
2014-6-19,85.0,77.5,72.6,73.0,69.4,67.0,93,77,56,29.96,29.86,8,4,17,0.01
2014-6-20,87.8,77.7,70.0,71.0,68.4,66.0,93,74,49,30.00,29.90,10,2,15,0.00
2014-6-21,84.7,77.5,72.0,71.0,68.6,65.0,91,75,52,29.96,29.81,11,2,13,0.00
2014-6-22,87.0,78.2,73.1,72.0,69.7,67.0,88,76,57,29.86,29.75,11,4,15,0.00
2014-6-23,89.1,77.5,72.5,77.0,72.2,70.0,96,84,63,29.92,29.76,9,2,11,0.85
2014-6-24,88.6,78.2,70.9,73.0,70.2,67.0,95,77,55,29.99,29.87,6,2,15,0.00
2014-6-25,87.5,77.3,70.7,73.0,70.5,66.0,95,80,57,29.97,29.82,9,3,20,0.00
2014-6-26,86.4,73.5,66.7,73.0,68.0,65.0,95,84,57,29.93,29.82,7,2,12,0.00
2014-7-9,92.4,89.9,83.9,66.0,63.4,60.6,55,42,36,29.91,29.88,8,6,19,0.00
2014-7-10,74.8,74.6,74.4,68.6,68.2,67.8,81,80,80,29.97,29.97,0,0,1,0.00
2014-7-11,88.9,80.8,75.9,65.0,62.9,60.9,69,55,41,30.07,29.97,8,3,20,0.00
2014-7-12,93.1,79.0,60.5,69.2,62.7,55.6,94,62,31,30.11,29.96,7,2,12,0.00
2014-7-13,96.0,81.5,63.7,72.0,64.6,61.5,94,61,34,30.05,29.91,6,2,10,0.00
2014-7-14,97.9,81.2,64.0,72.4,63.8,59.7,91,60,29,29.99,29.82,6,2,8,0.00
2014-7-15,91.3,77.8,67.7,74.3,67.3,60.5,90,71,45,29.95,29.85,7,2,13,0.03
2014-7-16,82.6,79.9,74.7,71.3,71.1,70.9,88,75,68,29.94,29.93,8,2,8,0.00